Location: Astronomy Adventures Observing Site
(35.3995°N, 106.1279°W)
Time: 07:33:14
(UTC-07:00)

Hubble Space Telescope - Visible Passes

Search period start: 22 January 2022 00:00
Search period end: 01 February 2022 00:00
Orbit: 535 x 538 km, 28.5° (Epoch: 21 January)

Date Brightness Start Highest point End Pass type
(mag) Time Alt. Az. Time Alt. Az. Time Alt. Az.
28 Jan 3.6 19:52:48 10° SSW 19:52:55 10° SSW 19:52:55 10° SSW visible
29 Jan 3.1 19:41:08 10° SSW 19:42:25 15° SSW 19:42:25 15° SSW visible
30 Jan 2.7 19:29:34 10° SW 19:31:53 21° S 19:31:53 21° S visible
31 Jan 2.3 19:18:04 10° SW 19:21:21 25° S 19:21:21 25° S visible
